PROFILE

 METAR AND TAF INFORMATION
ADDS - METARS form results

(0619 UTC 22 September 2019)
http://aviationweather.gov/metar/data/
 
TNCM 220600Z 09013KT 9999 -SHRA SCT018 28/24 Q1014
TNCM 220540Z 2206/2306 11008KT P6SM VCSH SCT018 FM221500 11013KT P6SM FEW018 

 AIRPORT MAP

 RUNWAY INFORMATION
Runway 10 Runway length 7546 ft Runway width 150 ft
Runway elevation 13 ft Runway displaced threshold 0 ft Runway heading 96
Runway 28 Runway length 7546 ft Runway width 150 ft
Runway elevation 9 ft Runway displaced threshold 328 ft Runway heading 276

 AIRPORT FREQUENCIES
Type APP Name JULIANA AP Frequency 128.95 MHZ
Type TWR Name JULIANA TW Frequency 118.7 MHZ

 AIRPORT NEAR NAVIGATION AIDS
Type NDB Name St.mMarten Frequency 284 KHZ
Type VOR-DME Name St.mMarten Frequency 113000 KHZ